Year,Month,Day,Hour,Minute,Value (Times are PST for temperature in C)
2009,08,18,08,38,16.00
2009,08,18,08,39,16.00
2009,08,18,08,40,16.10
2009,08,18,08,41,16.20
2009,08,18,08,42,16.30
2009,08,18,08,43,16.30
2009,08,18,08,44,16.40
2009,08,18,08,45,16.50
2009,08,18,08,46,16.50
2009,08,18,08,47,16.60
2009,08,18,08,48,16.70
2009,08,18,08,49,16.80
2009,08,18,08,50,16.80
2009,08,18,08,51,16.90
2009,08,18,08,52,16.90
2009,08,18,08,53,17.00
2009,08,18,08,54,17.00
2009,08,18,08,55,17.10
2009,08,18,08,56,17.10
2009,08,18,08,57,17.20
2009,08,18,08,58,17.20
2009,08,18,08,59,17.30
2009,08,18,09,00,17.30
2009,08,18,09,01,17.40
2009,08,18,09,02,17.40
2009,08,18,09,03,17.50
2009,08,18,09,04,17.60
2009,08,18,09,05,17.60
2009,08,18,09,06,17.70
2009,08,18,09,07,17.80
2009,08,18,09,08,17.90
2009,08,18,09,09,18.00
2009,08,18,09,10,18.00
2009,08,18,09,11,18.10
2009,08,18,09,12,18.20
2009,08,18,09,13,18.30
2009,08,18,09,14,18.40
2009,08,18,09,15,18.50
2009,08,18,09,16,18.60
2009,08,18,09,17,18.70
2009,08,18,09,18,18.80
2009,08,18,09,19,18.90
2009,08,18,09,20,19.00
2009,08,18,09,21,19.00
2009,08,18,09,22,19.10
2009,08,18,09,23,19.20
2009,08,18,09,24,19.20
2009,08,18,09,25,19.30
2009,08,18,09,26,19.30
2009,08,18,09,27,19.40
2009,08,18,09,28,19.40
2009,08,18,09,29,19.50
2009,08,18,09,30,19.60
2009,08,18,09,31,19.60
2009,08,18,09,32,19.60
2009,08,18,09,33,19.70
2009,08,18,09,34,19.70
2009,08,18,09,35,19.70
2009,08,18,09,36,19.80
2009,08,18,09,37,19.80
2009,08,18,09,38,19.90
2009,08,18,09,39,19.90
2009,08,18,09,40,20.00
2009,08,18,09,41,20.10
2009,08,18,09,42,20.10
2009,08,18,09,43,20.20
2009,08,18,09,44,20.20
2009,08,18,09,45,20.20
2009,08,18,09,46,20.20
2009,08,18,09,47,20.30
2009,08,18,09,48,20.30
2009,08,18,09,49,20.30
2009,08,18,09,50,20.40
2009,08,18,09,51,20.40
2009,08,18,09,52,20.50
2009,08,18,09,53,20.60
2009,08,18,09,54,20.70
2009,08,18,09,55,20.70
2009,08,18,09,56,20.80
2009,08,18,09,57,20.80
2009,08,18,09,58,20.80
2009,08,18,09,59,20.90
2009,08,18,10,00,20.90
2009,08,18,10,01,20.90
2009,08,18,10,02,21.00
2009,08,18,10,03,21.00
2009,08,18,10,04,21.10
2009,08,18,10,05,21.20
2009,08,18,10,06,21.20
2009,08,18,10,07,21.30
2009,08,18,10,08,21.30
2009,08,18,10,09,21.40
2009,08,18,10,10,21.40
2009,08,18,10,11,21.40
2009,08,18,10,12,21.50
2009,08,18,10,13,21.50
2009,08,18,10,14,21.60
2009,08,18,10,15,21.60
2009,08,18,10,16,21.70
2009,08,18,10,17,21.70
2009,08,18,10,18,21.70
2009,08,18,10,19,21.80
2009,08,18,10,20,21.80
2009,08,18,10,21,22.00
2009,08,18,10,22,22.00
2009,08,18,10,23,22.10
2009,08,18,10,24,22.20
2009,08,18,10,25,22.20
2009,08,18,10,26,22.30
2009,08,18,10,27,22.30
2009,08,18,10,28,22.40
2009,08,18,10,29,22.50
2009,08,18,10,30,22.60
2009,08,18,10,31,22.60
2009,08,18,10,32,22.60
2009,08,18,10,33,22.60
2009,08,18,10,34,22.70
2009,08,18,10,35,22.70
2009,08,18,10,36,22.80
2009,08,18,10,37,22.90
2009,08,18,10,38,23.00
2009,08,18,10,39,23.10
2009,08,18,10,40,23.20
2009,08,18,10,41,23.30
2009,08,18,10,42,23.40
2009,08,18,10,43,23.50
2009,08,18,10,44,23.60
2009,08,18,10,45,23.60
2009,08,18,10,46,23.70
2009,08,18,10,47,23.70
2009,08,18,10,48,23.70
2009,08,18,10,49,23.70
2009,08,18,10,50,23.60
2009,08,18,10,51,23.60
2009,08,18,10,52,23.60
2009,08,18,10,53,23.60
2009,08,18,10,54,23.70
2009,08,18,10,55,23.70
2009,08,18,10,56,23.70
2009,08,18,10,57,23.70
2009,08,18,10,58,23.60
2009,08,18,10,59,23.60
2009,08,18,11,00,23.60
2009,08,18,11,01,23.60
2009,08,18,11,02,23.60
2009,08,18,11,03,23.60
2009,08,18,11,04,23.60
2009,08,18,11,05,23.60
2009,08,18,11,06,23.60
2009,08,18,11,07,23.60
2009,08,18,11,08,23.60
2009,08,18,11,09,23.70
2009,08,18,11,10,23.80
2009,08,18,11,11,23.80
2009,08,18,11,12,23.90
2009,08,18,11,13,23.90
2009,08,18,11,14,24.00
2009,08,18,11,15,24.00
2009,08,18,11,16,24.10
2009,08,18,11,17,24.10
2009,08,18,11,18,24.20
2009,08,18,11,19,24.20
2009,08,18,11,20,24.20
2009,08,18,11,21,24.30
2009,08,18,11,22,24.30
2009,08,18,11,23,24.40
2009,08,18,11,24,24.50
2009,08,18,11,25,24.60
2009,08,18,11,26,24.70
2009,08,18,11,27,24.90
2009,08,18,11,28,25.00
2009,08,18,11,29,25.10
2009,08,18,11,30,25.10
2009,08,18,11,31,25.10
2009,08,18,11,32,25.10
2009,08,18,11,33,25.00
2009,08,18,11,34,25.00
2009,08,18,11,35,25.10
2009,08,18,11,36,25.10
2009,08,18,11,37,25.10
2009,08,18,11,38,25.20
2009,08,18,11,39,25.30
2009,08,18,11,40,25.40
2009,08,18,11,41,25.50
2009,08,18,11,42,25.70
2009,08,18,11,43,25.80
2009,08,18,11,44,25.90
2009,08,18,11,45,26.00
2009,08,18,11,46,26.10
2009,08,18,11,47,26.10
2009,08,18,11,48,26.20
2009,08,18,11,49,26.30
2009,08,18,11,50,26.30
2009,08,18,11,51,26.40
2009,08,18,11,52,26.50
2009,08,18,11,53,26.60
2009,08,18,11,54,26.60
2009,08,18,11,55,26.70
2009,08,18,11,56,26.80
2009,08,18,11,57,26.90
2009,08,18,11,58,27.00
2009,08,18,11,59,27.10
2009,08,18,12,00,27.20
2009,08,18,12,01,27.30
2009,08,18,12,02,27.50
2009,08,18,12,03,27.60
2009,08,18,12,04,27.60
2009,08,18,12,05,27.70
2009,08,18,12,06,27.80
2009,08,18,12,07,27.90
2009,08,18,12,08,28.00
2009,08,18,12,09,28.10
2009,08,18,12,10,28.20
2009,08,18,12,11,28.20
2009,08,18,12,12,28.20
2009,08,18,12,13,28.30
2009,08,18,12,14,28.30
2009,08,18,12,15,28.40
2009,08,18,12,16,28.40
2009,08,18,12,17,28.50
2009,08,18,12,18,28.60
2009,08,18,12,19,28.70
2009,08,18,12,20,28.70
2009,08,18,12,21,28.80
2009,08,18,12,22,28.90
2009,08,18,12,23,28.90
2009,08,18,12,24,28.90
2009,08,18,12,25,28.90
2009,08,18,12,26,28.90
2009,08,18,12,27,28.90
2009,08,18,12,28,28.90
2009,08,18,12,29,28.90
2009,08,18,12,30,28.90
2009,08,18,12,31,28.80
2009,08,18,12,32,28.70
2009,08,18,12,33,28.70
2009,08,18,12,34,28.60
2009,08,18,12,35,28.60
2009,08,18,12,36,28.60
2009,08,18,12,37,28.60
2009,08,18,12,38,28.70
2009,08,18,12,39,28.70
2009,08,18,12,40,28.70
2009,08,18,12,41,28.80
2009,08,18,12,42,28.80
2009,08,18,12,43,28.90
2009,08,18,12,44,29.00
2009,08,18,12,45,29.00
2009,08,18,12,46,29.10
2009,08,18,12,47,29.20
2009,08,18,12,48,29.20
2009,08,18,12,49,29.20
2009,08,18,12,50,29.20
2009,08,18,12,51,29.10
2009,08,18,12,52,29.20
2009,08,18,12,53,29.20
2009,08,18,12,54,29.20
2009,08,18,12,55,29.30
2009,08,18,12,56,29.30
2009,08,18,12,57,29.20
2009,08,18,12,58,29.20
2009,08,18,12,59,29.20
2009,08,18,13,00,29.20
2009,08,18,13,01,29.20
2009,08,18,13,02,29.20
2009,08,18,13,03,29.30
2009,08,18,13,04,29.40
2009,08,18,13,05,29.40
2009,08,18,13,06,29.50
2009,08,18,13,07,29.70
2009,08,18,13,08,29.80
2009,08,18,13,09,30.00
2009,08,18,13,10,30.00
2009,08,18,13,11,30.10
2009,08,18,13,12,30.20
2009,08,18,13,13,30.20
2009,08,18,13,14,30.20
2009,08,18,13,15,30.20
2009,08,18,13,16,30.20
2009,08,18,13,17,30.20
2009,08,18,13,18,30.20
2009,08,18,13,19,30.30
2009,08,18,13,20,30.30
2009,08,18,13,21,30.30
2009,08,18,13,22,30.30
2009,08,18,13,23,30.30
2009,08,18,13,24,30.20
2009,08,18,13,25,30.20
2009,08,18,13,26,30.30
2009,08,18,13,27,30.40
2009,08,18,13,28,30.40
2009,08,18,13,29,30.40
2009,08,18,13,30,30.40
2009,08,18,13,31,30.50
2009,08,18,13,32,30.50
2009,08,18,13,33,30.60
2009,08,18,13,34,30.60
2009,08,18,13,35,30.70
2009,08,18,13,36,30.70
2009,08,18,13,37,30.80
2009,08,18,13,38,30.80
2009,08,18,13,39,30.80
2009,08,18,13,40,30.90
2009,08,18,13,41,31.00
2009,08,18,13,42,31.00
2009,08,18,13,43,31.00
2009,08,18,13,44,30.90
2009,08,18,13,45,30.80
2009,08,18,13,46,30.70
2009,08,18,13,47,30.80
2009,08,18,13,48,30.80
2009,08,18,13,49,30.90
2009,08,18,13,50,31.00
2009,08,18,13,51,31.10
2009,08,18,13,52,31.20
2009,08,18,13,53,31.30
2009,08,18,13,54,31.30
2009,08,18,13,55,31.30
2009,08,18,13,56,31.30
2009,08,18,13,57,31.30
2009,08,18,13,58,31.40
2009,08,18,13,59,31.50
2009,08,18,14,00,31.60
2009,08,18,14,01,31.60
2009,08,18,14,02,31.70
2009,08,18,14,03,31.70
2009,08,18,14,04,31.70
2009,08,18,14,05,31.70
2009,08,18,14,06,31.80
2009,08,18,14,07,31.80
2009,08,18,14,08,31.90
2009,08,18,14,09,31.90
2009,08,18,14,10,32.10
2009,08,18,14,11,32.10
2009,08,18,14,12,32.20
2009,08,18,14,13,32.10
2009,08,18,14,14,32.10
2009,08,18,14,15,32.00
2009,08,18,14,16,31.90
2009,08,18,14,17,31.90
2009,08,18,14,18,31.90
2009,08,18,14,19,31.90
2009,08,18,14,20,31.90
2009,08,18,14,21,31.90
2009,08,18,14,22,31.80
2009,08,18,14,23,31.70
2009,08,18,14,24,31.50
2009,08,18,14,25,31.40
2009,08,18,14,26,31.30
2009,08,18,14,27,31.30
2009,08,18,14,28,31.20
2009,08,18,14,29,31.10
2009,08,18,14,30,31.00
2009,08,18,14,31,30.90
2009,08,18,14,32,30.90
2009,08,18,14,33,30.90
2009,08,18,14,34,30.90
2009,08,18,14,35,30.90
2009,08,18,14,36,30.80
2009,08,18,14,37,30.90
2009,08,18,14,38,30.90
2009,08,18,14,39,30.90
2009,08,18,14,40,30.90
2009,08,18,14,41,30.90
2009,08,18,14,42,30.90
2009,08,18,14,43,30.90
2009,08,18,14,44,30.90
2009,08,18,14,45,30.90
2009,08,18,14,46,30.90
2009,08,18,14,47,30.90
2009,08,18,14,48,30.80
2009,08,18,14,49,30.70
2009,08,18,14,50,30.60
2009,08,18,14,51,30.60
2009,08,18,14,52,30.60
2009,08,18,14,53,30.70
2009,08,18,14,54,30.80
2009,08,18,14,55,30.80
2009,08,18,14,56,30.90
2009,08,18,14,57,31.00
2009,08,18,14,58,31.00
2009,08,18,14,59,31.10
2009,08,18,15,00,31.10
2009,08,18,15,01,31.00
2009,08,18,15,02,30.90
2009,08,18,15,03,30.90
2009,08,18,15,04,30.90
2009,08,18,15,05,30.90
2009,08,18,15,06,30.80
2009,08,18,15,07,30.70
2009,08,18,15,08,30.50
2009,08,18,15,09,30.30
2009,08,18,15,10,30.10
2009,08,18,15,11,30.00
2009,08,18,15,12,30.00
2009,08,18,15,13,30.00
2009,08,18,15,14,30.00
2009,08,18,15,15,29.90
2009,08,18,15,16,30.00
2009,08,18,15,17,30.00
2009,08,18,15,18,30.10
2009,08,18,15,19,30.10
2009,08,18,15,20,30.20
2009,08,18,15,21,30.20
2009,08,18,15,22,30.20
2009,08,18,15,23,30.20
2009,08,18,15,24,30.20
2009,08,18,15,25,30.20
2009,08,18,15,26,30.10
2009,08,18,15,27,30.10
2009,08,18,15,28,30.10
2009,08,18,15,29,30.10
2009,08,18,15,30,30.10
2009,08,18,15,31,30.10
2009,08,18,15,32,30.20
2009,08,18,15,33,30.30
2009,08,18,15,34,30.30
2009,08,18,15,35,30.20
2009,08,18,15,36,30.20
2009,08,18,15,37,30.20
2009,08,18,15,38,30.10
2009,08,18,15,39,30.00
2009,08,18,15,40,29.90
2009,08,18,15,41,29.80
2009,08,18,15,42,29.60
2009,08,18,15,43,29.50
2009,08,18,15,44,29.40
2009,08,18,15,45,29.30
2009,08,18,15,46,29.30
2009,08,18,15,47,29.20
2009,08,18,15,48,29.20
2009,08,18,15,49,29.20
2009,08,18,15,50,29.30
2009,08,18,15,51,29.40
2009,08,18,15,52,29.40
2009,08,18,15,53,29.50
2009,08,18,15,54,29.40
2009,08,18,15,55,29.40
2009,08,18,15,56,29.40
2009,08,18,15,57,29.40
2009,08,18,15,58,29.40
2009,08,18,15,59,29.40
2009,08,18,16,00,29.40
2009,08,18,16,01,29.40
2009,08,18,16,02,29.40
2009,08,18,16,03,29.40
2009,08,18,16,04,29.40
2009,08,18,16,05,29.30
2009,08,18,16,06,29.40
2009,08,18,16,07,29.40
2009,08,18,16,08,29.40
2009,08,18,16,09,29.40
2009,08,18,16,10,29.40
2009,08,18,16,11,29.50
2009,08,18,16,12,29.50
2009,08,18,16,13,29.40
2009,08,18,16,14,29.40
2009,08,18,16,15,29.40
2009,08,18,16,16,29.50
2009,08,18,16,17,29.50
2009,08,18,16,18,29.60
2009,08,18,16,19,29.60
2009,08,18,16,20,29.50
2009,08,18,16,21,29.50
2009,08,18,16,22,29.40
2009,08,18,16,23,29.40
2009,08,18,16,24,29.40
2009,08,18,16,25,29.40
2009,08,18,16,26,29.30
2009,08,18,16,27,29.30
2009,08,18,16,28,29.30
2009,08,18,16,29,29.30
2009,08,18,16,30,29.30
2009,08,18,16,31,29.30
2009,08,18,16,32,29.30
2009,08,18,16,33,29.20
2009,08,18,16,34,29.20
2009,08,18,16,35,29.30
2009,08,18,16,36,29.30
2009,08,18,16,37,29.40
2009,08,18,16,38,29.50
2009,08,18,16,39,29.50
2009,08,18,16,40,29.60
2009,08,18,16,41,29.60
2009,08,18,16,42,29.50
2009,08,18,16,43,29.40
2009,08,18,16,44,29.40
2009,08,18,16,45,29.30
2009,08,18,16,46,29.30
2009,08,18,16,47,29.30
2009,08,18,16,48,29.30
2009,08,18,16,49,29.30
2009,08,18,16,50,29.30
2009,08,18,16,51,29.30
2009,08,18,16,52,29.20
2009,08,18,16,53,29.10
2009,08,18,16,54,29.00
2009,08,18,16,55,29.00
2009,08,18,16,56,28.90
2009,08,18,16,57,28.90
2009,08,18,16,58,28.80
2009,08,18,16,59,28.80
2009,08,18,17,00,28.80
2009,08,18,17,01,28.80
2009,08,18,17,02,28.70
2009,08,18,17,03,28.70
2009,08,18,17,04,28.70
2009,08,18,17,05,28.80
2009,08,18,17,06,28.80
2009,08,18,17,07,28.90
2009,08,18,17,08,28.90
2009,08,18,17,09,28.90
2009,08,18,17,10,28.90
2009,08,18,17,11,28.90
2009,08,18,17,12,28.90
2009,08,18,17,13,28.90
2009,08,18,17,14,28.90
2009,08,18,17,15,28.90
2009,08,18,17,16,28.90
2009,08,18,17,17,28.90
2009,08,18,17,18,28.90
2009,08,18,17,19,28.90
2009,08,18,17,20,28.90
2009,08,18,17,21,28.80
2009,08,18,17,22,28.80
2009,08,18,17,23,28.80
2009,08,18,17,24,28.80
2009,08,18,17,25,28.80
2009,08,18,17,26,28.70
2009,08,18,17,27,28.70
2009,08,18,17,28,28.70
2009,08,18,17,29,28.70
2009,08,18,17,30,28.60
2009,08,18,17,31,28.60
2009,08,18,17,32,28.70
2009,08,18,17,33,28.70
2009,08,18,17,34,28.70
2009,08,18,17,35,28.70
2009,08,18,17,36,28.60
2009,08,18,17,37,28.60
2009,08,18,17,38,28.70
2009,08,18,17,39,28.70
2009,08,18,17,40,28.70
2009,08,18,17,41,28.70
2009,08,18,17,42,28.70
2009,08,18,17,43,28.70
2009,08,18,17,44,28.70
2009,08,18,17,45,28.70
2009,08,18,17,46,28.70
2009,08,18,17,47,28.70
2009,08,18,17,48,28.70
2009,08,18,17,49,28.70
2009,08,18,17,50,28.70
2009,08,18,17,51,28.70
2009,08,18,17,52,28.70
2009,08,18,17,53,28.70
2009,08,18,17,54,28.70
2009,08,18,17,55,28.70
